Location: ?????? ??????? ??????
(55.8932°N, 38.7990°E)
Time: 14:54:04
(UTC+00:00)

Daily predictions for brighter satellites

Satellite Brightness Start Highest point End
(mag) Time Altitude Azimuth Time Altitude Azimuth Time Altitude Azimuth
NOSS 3-4 (A) 4.0 14:15:36 10° WNW 14:21:57 52° NNE 14:29:02 10° E
NOSS 3-4 (C) 4.0 14:15:42 10° WNW 14:22:03 52° NNE 14:29:07 10° E
CZ-2C R/B 4.2 14:20:21 10° ESE 14:25:00 27° NE 14:29:30 10° N
Meteor 1-11 4.3 14:19:42 10° NNW 14:25:28 84° ENE 14:31:15 10° SSE
Cosmos 1356 Rocket 3.5 14:22:22 10° SSW 14:26:40 89° ESE 14:31:01 10° NNE
H-2A R/B 3.8 14:26:16 10° S 14:29:51 49° W 14:33:30 10° NNW
Cosmos 2098 Rocket 4.4 14:27:33 10° NNW 14:30:22 31° W 14:32:57 10° SSW
Cosmos 371 Rocket 4.4 14:26:09 10° SW 14:30:46 43° NW 14:35:27 10° NNE
Cosmos 1953 2.8 14:26:53 10° SSW 14:30:49 63° WNW 14:34:48 10° N
NOSS 2-1 (C) 3.5 14:29:30 10° WSW 14:32:51 58° NNW 14:36:49 10° NE
Meteor 2-16 Rocket 4.5 14:27:21 10° N 14:33:26 64° ENE 14:39:28 10° SSE
Cosmos 1606 Rocket 3.9 14:29:45 10° SSE 14:33:55 43° E 14:38:08 10° NNE
FengYun 1-2 T 4.3 14:31:01 10° SSE 14:36:37 68° ENE 14:42:13 10° NNW
NOSS 2-1 (D) 3.6 14:34:48 10° WSW 14:38:09 54° NNW 14:42:07 10° NE
Cosmos 1943 Rocket 3.5 14:34:20 10° WSW 14:39:23 35° NW 14:44:26 10° NNE
USA 305 3.6 14:36:02 10° W 14:40:15 53° SSW 14:44:26 10° ESE
Aureole 3 Rocket 4.2 14:36:16 10° SE 14:40:23 33° E 14:45:55 10° NNE
USA 215 3.3 14:35:58 10° E 14:42:32 83° N 14:49:06 10° W
Cosmos 292 Rocket 4.2 14:38:18 10° S 14:42:50 42° ESE 14:47:23 10° NE
Cosmos 1745 Rocket 4.5 14:37:13 10° N 14:43:04 39° ENE 14:48:57 10° SE
YAOGAN 6 3.3 14:39:31 10° S 14:43:10 62° W 14:46:52 10° NNW
Cosmos 1726 4.0 14:40:19 10° SW 14:43:43 32° WNW 14:47:07 10° N
ATLAS 2AS CENTAUR R/B 3.2 14:36:19 10° WNW 14:43:59 55° NNE 14:51:08 10° E
Cosmos 2219 3.4 14:38:37 10° NW 14:44:25 86° WSW 14:50:11 10° SSE
SeaSat 1 3.5 14:41:34 10° E 14:45:45 28° NE 14:49:56 10° NNW
H-2A R/B 3.1 14:41:46 10° ESE 14:46:17 27° NE 14:50:49 10° N
USA 306 3.7 14:42:33 10° W 14:46:43 51° SSW 14:50:52 10° SE
COSMOS 2455 4.1 14:42:48 10° WNW 14:48:00 29° N 14:53:11 10° NE
CZ-4C R/B 3.3 14:45:45 10° N 14:49:01 66° WNW 14:52:19 10° SSW
ATLAS 5 CENTAUR R/B 2.5 14:45:03 10° W 14:49:20 45° NNW 14:54:20 10° NE
Cosmos 1455 3.9 14:48:25 10° ESE 14:50:22 14° E 14:52:19 10° NE
Cosmos 2082 3.8 14:46:00 10° NNW 14:51:42 61° NE 14:57:24 10° SE
Cosmos 1331 Rocket 4.0 14:47:27 10° S 14:52:32 62° ESE 14:57:38 10° NNE
SMAP 3.6 14:48:35 10° S 14:53:13 66° WSW 14:57:53 10° NNW
Okean-O 3.1 14:49:14 10° SE 14:53:20 38° ENE 14:57:26 10° N
H-2A R/B 4.4 14:49:52 10° SSW 14:54:03 37° W 14:58:17 10° NNW
Cosmos 1244 Rocket 4.5 14:49:47 10° N 14:56:01 74° ENE 15:02:16 10° SSE
Cosmos 2278 Rocket 4.1 14:52:20 10° NW 14:56:12 18° N 15:00:04 10° NE
CSL-04 DEB 4.3 14:52:41 10° NNE 14:56:40 82° ESE 15:00:35 10° SSW
Lacrosse 5 1.9 14:52:17 10° W 14:57:23 78° N 15:01:48 14° E
Cosmos 1953 Rocket 3.7 14:55:22 10° NNW 14:59:48 79° W 15:04:14 10° S
ARGOS 4.1 14:55:54 10° ESE 15:00:24 27° NE 15:04:55 10° N
GEOS 3 Rocket 3.9 14:55:34 10° ESE 15:00:50 59° NNE 15:06:10 10° NW
Cosmos 968 Rocket 3.4 14:55:49 10° NNW 15:01:05 80° ENE 15:06:18 10° SSE
ADEOS Rocket 3.3 14:55:28 10° NNE 15:01:48 84° WNW 15:08:51 10° SSW
Cosmos 1656 4.4 14:56:56 10° S 15:01:53 33° ESE 15:06:54 10° NE
FALCON 9 DEB 4.5 15:00:40 10° SSW 15:03:19 24° SSE 15:05:08 15° ESE
Cosmos 1844 Rocket 4.3 15:00:42 10° NNW 15:04:51 20° NNE 15:08:21 12° ENE
Feng Yun 1-1 Rocket 4.4 15:01:21 10° SSE 15:07:18 87° ENE 15:13:15 10° NNW
Cosmos 1408 3.0 15:04:09 10° N 15:07:36 38° ENE 15:11:03 10° SE
USA 281 4.1 15:02:05 10° S 15:08:30 54° WSW 15:14:57 10° NW
CZ-4B R/B 4.3 15:04:14 10° S 15:09:37 50° W 15:14:58 10° NNW
GENESIS II 4.3 15:06:09 10° SW 15:10:11 70° SE 15:13:31 15° NE
Cosmos 2058 Rocket 3.2 15:07:13 10° S 15:11:35 52° E 15:16:00 10° NNE
CZ-4C R/B 3.1 15:07:20 10° WNW 15:13:28 50° NNE 15:19:15 17° E
SL-08 ROCKET BODY 4.4 15:07:39 10° N 15:13:43 63° ENE 15:19:50 10° SSE
Cosmos 2227 Rocket 2.6 15:09:55 10° NW 15:15:34 69° WSW 15:21:11 10° SSE
ERBS 2.3 15:12:37 10° W 15:15:58 71° N 15:17:55 23° E
Cosmos 1076 Rocket 3.8 15:12:53 10° N 15:16:56 41° ENE 15:20:58 10° SE
IRS-1C Rocket 4.1 15:12:03 10° SSE 15:17:20 85° ENE 15:22:40 10° NNW
Cosmos 2263 Rocket 2.8 15:12:29 10° NNW 15:17:49 39° NE 15:21:42 17° E
FALCON 9 DEB 4.3 15:15:01 10° SW 15:17:49 27° SSE 15:19:11 20° ESE
SJ 16-02 3.1 15:16:11 10° N 15:18:49 15° NE 15:19:44 14° NE
Cosmos 1689 Rocket 2.8 15:17:47 20° NE 15:19:10 30° E 15:21:46 10° SSE
Cosmos 1818 4.3 15:14:48 10° WSW 15:20:07 50° NNW 15:25:06 12° NE
CSL-04 Rocket 4.0 15:16:07 10° SE 15:21:21 45° ENE 15:26:33 10° N
Cosmos 1892 2.6 15:19:04 10° N 15:22:59 79° ENE 15:26:53 10° SSE
Cosmos 1110 Rocket 4.1 15:17:51 10° SSW 15:23:06 78° WNW 15:28:20 10° NNE
FALCON 9 DEB 4.0 15:21:00 10° W 15:24:16 42° SSW 15:26:28 18° SE
Cosmos 1302 Rocket 4.0 15:19:54 10° SSW 15:25:05 62° ESE 15:30:21 10° NNE
H-2A R/B 3.1 15:22:23 10° N 15:26:24 46° WNW 15:30:20 10° SW
FALCON 9 DEB 4.1 15:24:32 10° SW 15:27:24 30° SSE 15:28:26 24° ESE
Cosmos 1939 Rocket 2.9 15:23:34 10° SSE 15:27:31 81° WSW 15:31:26 10° NNW
COSMO-SKYMED 1 2.7 15:23:52 10° NNE 15:28:09 51° E 15:32:23 10° S
USA 307 4.2 15:26:17 10° W 15:30:14 36° SSW 15:34:05 10° SE
Cosmos 1486 Rocket 4.5 15:25:03 10° NNW 15:30:22 66° WSW 15:35:38 10° SSE
NOSS 2-1 (E) 4.4 15:28:20 10° W 15:31:42 37° NNW 15:34:33 17° NE
SAR-Lupe-4 3.5 15:29:12 10° NNE 15:32:47 66° ESE 15:36:21 10° S
Cosmos 1697 Rocket 3.3 15:29:45 10° S 15:34:42 33° ESE 15:37:53 19° ENE
USA 308 4.3 15:31:16 10° W 15:35:11 34° SSW 15:38:52 11° SE
BREEZE-M R/B 4.3 15:33:54 10° WSW 15:37:30 41° S 15:42:10 17° ESE
CZ-4B R/B 1.7 15:34:45 10° N 15:38:00 64° WNW 15:41:07 10° SSW
Cosmos 1300 3.3 15:34:21 10° SSW 15:38:07 58° WNW 15:41:55 10° N
Cosmos 1825 2.2 15:35:06 10° N 15:38:51 54° ENE 15:42:34 10° SSE
Meteor 2-8 Rocket 4.4 15:32:52 10° S 15:38:59 79° E 15:45:11 10° NNE
Cosmos 1400 Rocket 2.8 15:35:01 10° SSW 15:39:07 87° ESE 15:43:12 10° NNE
S3M 4.0 15:33:40 10° SSE 15:39:35 53° E 15:45:35 10° NNE
ERS-2 2.6 15:36:41 10° NNE 15:40:19 63° WNW 15:43:56 10° SSW
Cosmos 1503 Rocket 4.0 15:35:22 10° NNW 15:40:37 85° WSW 15:45:54 10° SSE
Helios 1A Rocket 3.1 15:40:22 10° SSE 15:44:29 77° WSW 15:48:36 10° NNW
YAOGAN 1 2.4 15:41:35 10° SSE 15:45:55 81° ENE 15:50:16 10° NNW
Meteor 2-1 Rocket 4.3 15:42:29 10° S 15:47:48 51° E 15:53:10 10° NNE
Cosmos 1766 Rocket 4.5 15:45:19 10° N 15:49:10 29° ENE 15:49:10 29° ENE
Cosmos 1417 Rocket 4.4 15:43:34 10° S 15:49:49 73° E 15:56:11 10° NNE
Cosmos 1340 4.3 15:46:29 10° NNW 15:49:59 36° W 15:53:27 10° SSW
SAR-Lupe-1 4.0 15:47:01 10° NNE 15:50:39 86° WNW 15:54:12 10° SSW
Cosmos 44 3.2 15:47:15 10° SW 15:51:54 84° NW 15:55:00 23° NE
Okean 3 Rocket 4.3 15:48:13 10° N 15:52:03 31° ENE 15:52:03 31° ENE
SKYMED 3 4.5 15:47:52 10° NNE 15:52:15 82° ESE 15:56:37 10° SSW
Cosmos 1812 Rocket 3.8 15:48:20 10° SSE 15:52:29 42° E 15:56:37 10° NNE
Okean O Rocket 4.3 15:49:41 10° SW 15:53:02 21° W 15:56:24 10° NW
Cosmos 1354 Rocket 4.1 15:48:06 10° NNW 15:53:23 78° WSW 15:58:39 10° SSE
CZ-2D R/B 3.8 15:49:44 10° S 15:53:30 58° W 15:57:16 10° NNW
Cosmos 2297 Rocket 3.9 15:49:44 10° NW 15:54:48 34° WSW 15:59:50 10° S
Resurs 01 Rocket 3.7 15:56:30 13° NNE 15:56:30 13° NNE 15:57:37 10° NNE
CZ-4 R/B 1.4 15:51:40 10° S 15:55:32 73° WSW 15:59:23 10° NNW
Aureole 3 3.4 15:53:46 10° SSW 15:56:42 53° WNW 15:59:43 10° N
Timation 1 Rocket 4.4 15:50:56 10° NW 15:56:59 80° WSW 16:03:00 10° SSE
Cosmos 1346 Rocket 3.3 15:53:10 10° NNW 15:57:08 60° W 16:01:04 10° S
Cosmos 2058 3.2 15:53:05 10° NNW 15:57:10 68° W 16:01:14 10° S
Cosmos 2369 Rocket 4.1 15:53:24 10° WNW 15:58:00 24° NNW 16:02:37 10° NNE
Cosmos 1980 Rocket 3.1 15:53:38 10° SSE 15:57:31 27° ESE 15:57:31 27° ESE
SL-4 R/B 3.1 15:56:31 10° W 15:59:44 31° SSW 16:00:57 25° SSE
Cosmos 2151 3.0 15:55:40 10° N 15:59:49 52° ENE 16:00:54 40° ESE
Meteor 2-15 Rocket 4.4 15:54:40 10° S 16:00:44 64° E 16:06:49 10° NNE
PSLV R/B 3.8 15:56:52 10° NNE 16:01:06 82° ESE 16:05:15 10° SSW
Cosmos 1992 Rocket 4.0 15:56:39 10° S 16:01:43 55° ESE 16:05:12 20° NE
SJ-11-01 4.1 15:58:08 10° SSE 16:02:49 80° ENE 16:07:32 10° NNW
CSL-04 Debris 4.1 15:58:43 10° SSE 16:04:11 86° ENE 16:09:43 10° NNW
CZ-2C R/B 3.3 15:58:39 10° SSE 16:04:24 80° WSW 16:09:58 10° NNW
Cosmos 1553 Rocket 4.1 16:01:40 10° SSW 16:08:01 82° WNW 16:14:18 10° N
CRYOSAT 2 4.2 16:03:40 10° N 16:08:33 70° E 16:13:24 10° S
Meteor 2-15 4.4 16:06:04 10° S 16:12:15 88° E 16:18:25 10° NNE
Cosmos 2227 4.1 16:06:39 10° NNW 16:12:19 71° NE 16:14:40 36° SE
Cosmos 1315 Rocket 2.6 16:08:48 10° S 16:12:46 75° ESE 16:15:47 17° NNE
NOSS 3-4 (A) 3.8 16:06:38 10° NW 16:13:24 82° SW 16:18:11 24° SE
NOSS 3-4 (C) 3.8 16:06:44 10° NW 16:13:30 82° SW 16:18:15 25° SE
Ariane Rocket 3.3 16:13:29 43° E 16:14:11 46° ENE 16:19:03 10° N
SKYMED 2 4.0 16:11:58 10° N 16:16:17 64° WNW 16:20:35 10° SSW
Meteor 2-10 Rocket 3.4 16:12:02 10° SSW 16:17:17 90° N 16:22:23 10° NNE
Cosmos 220 Rocket 3.9 16:13:21 10° SSW 16:17:44 75° ESE 16:19:08 43° NE
Cosmos 2360 4.3 16:15:37 10° S 16:21:08 52° ESE 16:22:32 42° ENE
SeaSat 1 2.4 16:20:51 37° SE 16:22:51 90° ENE 16:27:50 10° NW
Cosmos 1943 Rocket 4.2 16:21:03 10° NW 16:24:49 18° NNW 16:28:10 11° NNE
H-2A R/B 2.3 16:19:50 10° S 16:25:17 75° WSW 16:30:47 10° NNW
Cosmos 1455 2.2 16:21:37 10° SSW 16:25:24 78° WNW 16:28:40 14° N
USA 215 3.2 16:22:49 38° ESE 16:25:37 88° SSW 16:32:12 10° WNW
Cosmos 1441 Rocket 4.2 16:22:11 10° N 16:24:39 35° N 16:24:39 35° N
MOS 1 Rocket 3.2 16:22:04 10° NNE 16:26:44 68° ESE 16:31:39 10° S
NOSS 3-3 (A) 4.0 16:20:54 10° SSW 16:26:44 57° SE 16:28:42 42° ENE
NOSS 3-3 (C) 4.0 16:21:01 10° SSW 16:26:51 57° SE 16:28:46 42° ENE
IRS-1A Rocket 4.2 16:27:59 48° ESE 16:29:13 60° ENE 16:34:40 10° NNW
Okean-O 4.1 16:25:43 10° SSW 16:29:50 37° W 16:33:58 10° NNW
Cosmos 2278 4.0 16:26:06 10° S 16:30:46 45° SE 16:30:46 45° SE
MOS 1 4.3 16:31:54 51° ESE 16:32:56 59° ENE 16:38:31 10° NNW
ATLAS 5 CENTAUR R/B 2.9 16:30:29 10° WNW 16:34:56 36° N 16:36:03 33° NNE
Meteor 2-3 Rocket 3.6 16:29:42 10° NNW 16:35:27 74° ENE 16:37:17 45° SE
ATLAS 2AS CENTAUR R/B 2.9 16:27:49 10° NW 16:35:30 79° SW 16:38:50 35° SE
COSMOS 2455 3.6 16:29:56 10° NW 16:35:31 36° NNE 16:36:36 34° NE
GEOS 3 Rocket 4.3 16:36:12 27° SSE 16:38:57 52° SW 16:44:15 10° NW
ARGOS 3.3 16:35:50 16° S 16:40:15 74° WSW 16:45:43 10° NNW
Lacrosse 5 1.7 16:35:25 10° WNW 16:40:30 82° SSW 16:41:00 72° SE
Cosmos 2278 Rocket 3.8 16:38:11 10° NNW 16:42:26 21° NNE 16:43:08 21° NNE
Cosmos 44 Rocket 4.4 16:38:29 10° SSW 16:41:12 31° S 16:41:12 31° S
Cosmos 1656 4.1 16:39:42 10° SW 16:45:16 63° NW 16:49:12 20° NNE
SL-08 RB Rocket 3.6 16:48:05 77° SW 16:48:17 80° WSW 16:52:50 10° NNW
Cosmos 1844 Rocket 3.3 16:44:51 10° NNW 16:50:00 42° NE 16:50:00 42° NE
ERBS 4.2 16:48:55 10° WNW 16:50:49 30° W 16:50:49 30° W
Cosmos 2184 Rocket 3.9 16:48:36 10° N 16:54:55 69° ENE 16:55:37 64° ESE
Cosmos 2369 3.6 16:50:12 10° SSW 16:55:56 89° ESE 16:57:13 56° NE
Cosmos 1777 Rocket 4.4 16:51:40 10° NNW 16:56:48 58° WSW 16:58:18 42° SSW
SJ 16-02 2.5 16:54:00 10° NNW 16:56:44 35° N 16:56:44 35° N
Meteor 2-17 Rocket 4.3 16:52:41 10° NNW 16:58:47 88° W 17:00:30 50° S
Cosmos 2263 Rocket 2.5 16:56:28 10° NW 17:02:07 64° WSW 17:03:25 50° S
CZ-4C R/B 2.7 16:55:55 10° NW 17:02:42 89° SW 17:04:27 58° SE
RESURS DK-1 4.4 16:59:50 10° NNW 17:01:39 20° N 17:01:39 20° N
SJ-6B 4.4 17:09:34 31° NNW 17:09:34 31° NNW 17:11:50 10° NNW
Cosmos 1844 4.4 17:02:48 10° NNW 17:07:17 42° NNE 17:07:17 42° NNE
Cosmos 2074 Rocket 3.8 17:06:39 10° NNW 17:12:55 88° E 17:13:23 78° SSE
Cosmos 1697 Rocket 3.0 17:12:48 10° SW 17:18:23 63° NW 17:19:40 50° N
Cosmos 1898 Rocket 4.3 17:15:21 10° NNW 17:19:10 44° N 17:19:10 44° N
Cosmos 2315 Rocket 4.4 17:22:31 10° SSW 17:28:39 61° WNW 17:34:49 10° N
SPOT 3 Rocket 4.5 17:32:20 42° NNW 17:32:20 42° NNW 17:35:47 10° NNW
Resurs 01 Rocket 3.8 17:34:04 19° N 17:34:04 19° N 17:35:20 10° NNW
Cosmos 1980 Rocket 3.4 17:36:19 10° SW 17:39:22 33° SW 17:39:22 33° SW
Cosmos 2369 Rocket 4.2 17:40:16 10° NW 17:44:07 18° N 17:44:55 17° NNE
Ariane Rocket 4.3 17:53:41 36° W 17:53:41 36° W 17:58:02 10° NNW
Cosmos 2154 Rocket 4.4 17:50:10 10° NNW 17:55:10 57° NW 17:55:10 57° NW
USA 215 3.9 18:10:10 46° WSW 18:10:10 46° WSW 18:15:24 10° WNW
Cosmos 1943 Rocket 4.3 18:06:48 10° NNW 18:09:41 18° N 18:09:41 18° N
ATLAS 5 CENTAUR R/B 3.8 18:15:18 10° NW 18:17:34 27° NW 18:17:34 27° NW
COSMOS 2455 4.0 18:16:06 10° NW 18:19:43 38° NW 18:19:43 38° NW
Lacrosse 5 4.2 18:18:33 10° WNW 18:20:11 19° W 18:20:11 19° W
ATLAS 2AS CENTAUR R/B 4.3 18:19:32 10° WNW 18:25:28 27° WSW 18:26:17 26° WSW
Cosmos 2278 Rocket 4.0 18:22:27 10° NNW 18:24:58 25° NNW 18:24:58 25° NNW
Cosmos 1844 Rocket 4.4 18:28:50 10° NW 18:31:40 29° NW 18:31:40 29° NW
SJ 16-02 4.4 18:33:05 10° NW 18:33:44 13° NW 18:33:44 13° NW
CZ-4C R/B 4.1 18:44:38 10° WNW 18:49:38 33° W 18:49:38 33° W
ATLAS CENTAUR R/B 4.5 18:52:46 10° WNW 19:13:45 80° W 19:13:45 80° W
Cosmos 2322 Rocket 4.4 23:31:09 19° N 23:31:20 19° NNE 23:35:24 10° ENE
USA 234 4.4 23:38:36 10° ENE 23:42:51 34° ESE 23:42:51 34° ESE
